Overview Statistics Trail Chart Weather Telemetry Raw packets
 

This is the latest recevied weather packets stored in our database for station/object N1YZ. If no packets are shown the sender has not sent any weather packets the latest 10 day(s).

<< 43 44 45 46 47 48 49 >>
Time Temp. Humidity Pressure Rain* Wind** Luminosity Snow
1788365934 33.33° C 57% 1038.8 hPa 0 mm - 80 W/m² -
1788365629 33.33° C 57% 1038.8 hPa 0 mm - 97 W/m² -
1788365326 32.78° C 60% 1038.9 hPa 0 mm - 123 W/m² -
1788365021 32.78° C 61% 1039 hPa 0 mm - 81 W/m² -
1788364719 32.78° C 61% 1039.1 hPa 0 mm - 72 W/m² -
1788364418 32.78° C 57% 1039.2 hPa 0 mm - 80 W/m² -
1788364113 33.33° C 58% 1039.1 hPa 0 mm - 60 W/m² -
1788363809 33.33° C 59% 1039.3 hPa 0 mm - 59 W/m² -
1788363507 32.78° C 59% 1039.3 hPa 0 mm - 236 W/m² -
1788363207 32.78° C 58% 1039.2 hPa 0 mm - 75 W/m² -
1788362903 32.78° C 61% 1038.9 hPa 0 mm - 119 W/m² -
1788362599 32.22° C 63% 1039.1 hPa 0 mm - 323 W/m² -
1788362294 32.22° C 66% 1039.1 hPa 0 mm - 187 W/m² -
1788361989 31.67° C 67% 1039.1 hPa 0 mm - 105 W/m² -
1788361683 31.67° C 67% 1039.3 hPa 0 mm - 55 W/m² -
1788361380 31.67° C 70% 1039 hPa 0 mm - 45 W/m² -
1788361079 31.67° C 70% 1039.1 hPa 0 mm - 283 W/m² -
1788360774 31.67° C 71% 1039.2 hPa 0 mm - 217 W/m² -
1788360470 31.67° C 70% 1039.1 hPa 0 mm - 99 W/m² -
1788360166 32.22° C 70% 1039 hPa 0 mm - 197 W/m² -
1788359860 32.22° C 69% 1039.2 hPa 0 mm - 314 W/m² -
1788359556 31.67° C 71% 1038.8 hPa 0 mm - 318 W/m² -
1788359251 30.56° C 72% 1039 hPa 0 mm - 316 W/m² -
1788358947 30° C 73% 1039 hPa 0 mm - 306 W/m² -
1788358641 30° C 78% 1038.9 hPa 0 mm - 290 W/m² -

* Rain latest hour (hover to see other rain measurements)
** Current wind speed in m/s (hover to see current wind gust speed)